Inquirer Daily News

Weather

Get conditions and forecasts for any City, State, ZIP code or Country:  
Trenton, NJ
on Sunday, December 16, 2012

Sunday
Previous Day Next Day
Daily Summary
 ActualAverageRecord
Temperature
Mean Temperature °F 35°F  
Max Temperature 52°F 43°F 66°F (1971)
Min Temperature 40°F 27°F 9°F (1917)
Degree Days
Heating Degree Days 19 30  
Month to date heating degree days 341 439  
Since 1 July heating degree days 1348 1415  
Cooling Degree Days 0 0  
Month to date cooling degree days 0 0  
Year to date cooling degree days 1234 965  
Moisture
Dew Point 43°F   
Average Humidity 83    
Maximum Humidity 93    
Minimum Humidity 73    
Precipitation
Precipitation 0.17 in 0.12 in 2.42 in (1974)
Month to date precipitation 1.00 2.17  
Year to date precipitation 34.23 44.91  
Wind
Wind Speed 7 mph   
Max Wind Speed 17 mph   
Max Gust Speed 22 mph   
Visibility 6 miles   
Events Rain   

Key: T is trace of precipitation, MM is missing value
Source: NWS Daily Summary
Time(EST)TemperatureDew PointHumidity Pressure Visibility Wind DirectionWind SpeedGust SpeedPrecipitationEvents Conditions
12:53 AM 41.0°F 34.0°F 76% 30.17 in 10.0 miles NE 3.5 mph - N/A   Overcast
1:27 AM 41.0°F 33.8°F 76% 30.17 in 10.0 miles Calm Calm - N/A   Overcast
1:53 AM 42.1°F 35.1°F 76% 30.16 in 10.0 miles East 3.5 mph - N/A   Overcast
2:53 AM 43.0°F 36.0°F 76% 30.13 in 10.0 miles East 4.6 mph - N/A   Overcast
3:53 AM 44.1°F 37.0°F 76% 30.10 in 10.0 miles ESE 5.8 mph - N/A   Overcast
4:48 AM 44.6°F 37.4°F 76% 30.11 in 10.0 miles East 6.9 mph - N/A   Overcast
4:53 AM 44.1°F 37.9°F 79% 30.09 in 10.0 miles East 5.8 mph - N/A   Overcast
6:53 AM 45.0°F 39.9°F 82% 30.07 in 10.0 miles East 5.8 mph - N/A   Overcast
7:05 AM 44.6°F 39.2°F 81% 30.08 in 10.0 miles East 6.9 mph - N/A   Overcast
7:18 AM 44.6°F 39.2°F 81% 30.08 in 10.0 miles ESE 4.6 mph - N/A   Overcast
7:53 AM 46.0°F 39.9°F 79% 30.06 in 10.0 miles ESE 4.6 mph - N/A   Overcast
8:34 AM 46.4°F 41.0°F 81% 30.06 in 10.0 miles ESE 4.6 mph - N/A   Overcast
8:53 AM 46.9°F 42.1°F 83% 30.05 in 8.0 miles Calm Calm - N/A   Unknown
9:12 AM 46.4°F 42.8°F 87% 30.06 in 6.0 miles Calm Calm - N/A   Haze
9:33 AM 46.4°F 42.8°F 87% 30.05 in 9.0 miles East 4.6 mph - N/A   Overcast
9:53 AM 48.0°F 44.1°F 86% 30.04 in 10.0 miles ESE 4.6 mph - N/A   Overcast
10:02 AM 48.2°F 44.6°F 87% 30.06 in 10.0 miles SE 4.6 mph - N/A   Overcast
10:23 AM 48.2°F 44.6°F 87% 30.05 in 10.0 miles SE 5.8 mph - N/A   Overcast
10:53 AM 50.0°F 45.0°F 83% 30.02 in 10.0 miles ESE 5.8 mph - N/A   Overcast
11:13 AM 51.8°F 44.6°F 76% 30.03 in 10.0 miles SE 4.6 mph - N/A   Mostly Cloudy
11:35 AM 51.8°F 44.6°F 76% 30.01 in 10.0 miles SE 3.5 mph - N/A   Overcast
11:53 AM 51.1°F 45.0°F 80% 29.99 in 10.0 miles SE 3.5 mph - N/A   Overcast
12:46 PM 51.8°F 44.6°F 76% 29.98 in 10.0 miles East 3.5 mph - N/A   Overcast
12:53 PM 52.0°F 45.0°F 77% 29.96 in 10.0 miles ENE 3.5 mph - N/A   Overcast
1:21 PM 51.8°F 46.4°F 82% 29.97 in 1.8 miles Calm Calm - 0.00 in Rain Light Rain
1:36 PM 50.0°F 46.4°F 87% 29.97 in 2.0 miles Calm Calm - 0.00 in Rain Light Rain
1:53 PM 50.0°F 46.9°F 89% 29.96 in 2.0 miles East 3.5 mph - 0.01 in Rain Light Rain
2:04 PM 50.0°F 48.2°F 94% 29.97 in 1.8 miles Calm Calm - 0.00 in Rain Light Rain
2:11 PM 50.0°F 48.2°F 94% 29.97 in 1.5 miles Calm Calm - 0.00 in Rain Light Rain
2:18 PM 48.2°F 48.2°F 100% 29.96 in 1.2 miles Calm Calm - 0.01 in Rain Light Rain
2:53 PM 48.9°F 48.0°F 97% 29.93 in 1.8 miles East 6.9 mph - 0.01 in   Overcast
3:00 PM 48.2°F 48.2°F 100% 29.94 in 2.0 miles East 8.1 mph - N/A   Overcast
3:30 PM 48.2°F 48.2°F 100% 29.95 in 2.5 miles East 4.6 mph - 0.01 in   Overcast
3:53 PM 48.9°F 46.9°F 93% 29.92 in 1.2 miles East 9.2 mph - 0.01 in Rain Light Rain
4:11 PM 48.2°F 46.4°F 93% 29.94 in 2.5 miles East 9.2 mph - 0.00 in   Overcast
4:29 PM 48.2°F 46.4°F 93% 29.93 in 4.0 miles ENE 12.7 mph - 0.00 in   Overcast
4:53 PM 48.0°F 46.0°F 93% 29.92 in 5.0 miles ENE 8.1 mph - 0.00 in   Overcast
5:14 PM 46.4°F 44.6°F 93% 29.93 in 7.0 miles ENE 10.4 mph - N/A   Overcast
5:53 PM 46.9°F 45.0°F 93% 29.91 in 4.0 miles East 12.7 mph - N/A   Overcast
6:53 PM 46.0°F 44.1°F 93% 29.90 in 4.0 miles East 16.1 mph 20.7 mph 0.01 in   Overcast
7:12 PM 46.4°F 44.6°F 93% 29.91 in 2.5 miles East 11.5 mph - N/A   Overcast
7:50 PM 46.4°F 44.6°F 93% 29.91 in 3.0 miles East 10.4 mph - N/A   Overcast
7:53 PM 46.0°F 44.1°F 93% 29.89 in 3.0 miles East 10.4 mph - N/A   Overcast
8:29 PM 46.4°F 44.6°F 93% 29.91 in 2.5 miles East 8.1 mph - N/A   Overcast
8:53 PM 45.0°F 44.1°F 97% 29.89 in 2.5 miles East 9.2 mph - 0.00 in Rain Light Rain
9:15 PM 44.6°F 44.6°F 100% 29.91 in 3.0 miles ENE 8.1 mph - 0.02 in Rain Light Rain
9:46 PM 44.6°F 42.8°F 93% 29.91 in 5.0 miles East 6.9 mph - 0.03 in Rain Light Rain
9:53 PM 45.0°F 43.0°F 93% 29.89 in 5.0 miles ENE 6.9 mph - 0.04 in Rain Light Rain
10:53 PM 45.0°F 43.0°F 93% 29.89 in 5.0 miles ENE 5.8 mph - 0.05 in Rain Light Rain
11:53 PM 44.1°F 43.0°F 96% 29.87 in 6.0 miles East 5.8 mph - 0.04 in Rain Light Rain
Astronomy
Sunrise:07:15 AM (EST) Moon Rise:09:47 AM (EST)12/16
Sunset:04:34 PM (EST) Moon Set:08:46 PM (EST)12/16
Moon Phase
Dec. 16 Dec. 20 Dec. 28 Jan. 04 Jan. 11

Copyright © 2014 The Weather Underground, Inc.